Weather reports worldwide

Advertisment
Grenoble/St.Geoirs, France (7486): temperature & dewpoint: 10.12.2017 06:00:00 - 16.12.2017 06:00:00 (CET)Grenoble/St.Geoirs, France (7486): temperature 5cm: 10.12.2017 06:00:00 - 16.12.2017 06:00:00 (CET)Grenoble/St.Geoirs, France (7486): temperature -20cm & temperature -100cm: 10.12.2017 06:00:00 - 16.12.2017 06:00:00 (CET)Grenoble/St.Geoirs, France (7486): wind speed & gusts: 10.12.2017 06:00:00 - 16.12.2017 06:00:00 (CET)Grenoble/St.Geoirs, France (7486): wind direction: 10.12.2017 06:00:00 - 16.12.2017 06:00:00 (CET)Grenoble/St.Geoirs, France (7486): reduced air pressure: 10.12.2017 06:00:00 - 16.12.2017 06:00:00 (CET)Grenoble/St.Geoirs, France (7486): visibility: 10.12.2017 06:00:00 - 16.12.2017 06:00:00 (CET)Grenoble/St.Geoirs, France (7486): sunshine duration: 10.12.2017 06:00:00 - 16.12.2017 06:00:00 (CET)Grenoble/St.Geoirs, France (7486): precipitation: 10.12.2017 06:00:00 - 16.12.2017 06:00:00 (CET)
Date & Time tt [°C] td [°C] tt 5cm [°C] tt -20cm [°C] tt -100cm [°C] ff [km/h] ff [kn] fx [km/h] fx [kn] dd ppp [hPa] vv [km] sd [min] rr [mm]
16.12.2017 06:00:00 2,1 -1,0 0,6 5,5 7,9 5 3 12 6 WNW 1010,6 10 0 0,0
16.12.2017 05:00:00 2,0 -0,9 0,9 5,6 7,9 5 3 14 8 - 1010,1 10 0 0,0
16.12.2017 04:00:00 2,0 0,5 1,5 5,6 7,9 11 6 21 11 WNW 1009,5 20 0 0,4
16.12.2017 03:00:00 2,5 0,7 1,9 5,6 7,9 16 9 24 13 W 1008,3 44 0 0,0
16.12.2017 02:00:00 2,7 1,1 2,1 5,6 7,9 11 6 34 18 WSW 1007,5 36 0 0,0
16.12.2017 01:00:00 3,0 0,9 2,2 5,7 7,9 21 11 40 21 W 1006,9 10 0 0,2
16.12.2017 00:00:00 2,4 1,4 0,6 5,7 7,9 5 3 16 9 SSE 1006,6 18 0 0,2
15.12.2017 23:00:00 2,4 1,1 1,4 5,7 7,9 2 1 10 5 - 1006,1 10 0 0,6
15.12.2017 22:00:00 2,5 1,2 1,5 5,7 7,9 7 4 10 5 ESE 1005,4 60 0 0,2
15.12.2017 21:00:00 3,3 1,0 2,4 5,7 7,9 5 3 24 13 WSW 1005,0 3,1 0 1,6
15.12.2017 20:00:00 4,6 0,5 2,8 5,7 7,9 15 8 26 14 SW 1004,0 10 0 0,2
15.12.2017 19:00:00 3,7 1,2 3,1 5,7 7,9 10 5 17 9 E 1003,2 28 0 0,0
15.12.2017 18:00:00 3,8 1,0 0,5 5,6 7,9 12 7 16 9 ENE 1003,4 49 0 0,0
15.12.2017 17:00:00 4,4 -0,6 0,2 5,5 7,8 6 3 13 7 ESE 1003,5 60 12 0,0
15.12.2017 16:00:00 7,3 -0,9 7,2 5,4 7,8 7 4 12 6 SE 1003,1 60 49 0,0
15.12.2017 15:00:00 8,4 0,1 9,8 5,4 7,9 4 2 13 7 S 1003,3 46 43 0,0
15.12.2017 14:00:00 8,1 0,1 8,7 5,4 7,9 5 3 11 6 ESE 1003,6 8 52 0,0
15.12.2017 13:00:00 7,4 2,1 10,2 5,4 7,9 9 5 17 9 E 1004,6 53 60 0,0
15.12.2017 12:00:00 6,2 3,4 5,0 5,4 7,8 11 6 19 10 E 1005,3 50 39 0,0
15.12.2017 11:00:00 4,0 2,7 2,9 5,5 7,9 11 6 18 10 E 1006,6 37 11 0,0
15.12.2017 10:00:00 3,0 1,8 1,6 5,5 7,9 11 6 17 9 E 1006,6 28 6 0,0
15.12.2017 09:00:00 2,2 1,3 1,2 5,5 7,9 5 3 21 12 ENE 1005,7 26 0 0,0
15.12.2017 08:00:00 2,8 1,6 2,2 5,5 7,9 13 7 18 10 ENE 1005,6 10 0 0,4
15.12.2017 07:00:00 3,0 1,4 2,3 5,6 7,9 12 7 22 12 E 1005,3 20 0 0,0
15.12.2017 06:00:00 2,4 1,4 1,4 5,6 7,9 16 9 23 12 E 1005,4 60 0 0,0
15.12.2017 05:00:00 1,9 0,9 1,6 5,6 7,9 17 9 25 13 ENE 1005,9 60 0 0,0
15.12.2017 04:00:00 3,1 2,1 2,4 5,6 7,9 15 8 21 11 ESE 1005,7 10 0 1,2
15.12.2017 03:00:00 2,7 1,7 1,5 5,5 7,9 8 4 64 34 SSW 1006,5 10 0 -
15.12.2017 02:00:00 3,4 0,4 2,4 5,5 7,9 35 19 79 43 NNW 1005,3 10 0 0,8
15.12.2017 01:00:00 9,5 3,7 7,6 5,5 7,9 31 17 55 30 SSW 1002,8 10 0 0,0
15.12.2017 00:00:00 8,9 4,1 7,5 5,5 7,9 28 15 57 31 SSW 1003,0 10 0 0,0
14.12.2017 23:00:00 10,0 2,3 9,4 5,4 7,9 26 14 50 27 SSW 1003,2 10 0 0,0
14.12.2017 22:00:00 10,2 1,3 9,3 5,4 7,9 35 19 54 29 S 1003,3 60 0 0,0
14.12.2017 21:00:00 9,9 1,8 8,6 5,4 7,9 31 17 56 30 SSW 1004,5 53 0 0,0
14.12.2017 20:00:00 9,6 2,7 8,6 5,3 7,9 29 16 61 33 SSW 1005,0 53 0 0,0
14.12.2017 19:00:00 9,5 2,8 8,4 5,2 7,9 21 11 36 20 SSW 1005,5 56 0 0,0
14.12.2017 18:00:00 9,4 1,8 8,2 5,2 7,9 21 12 41 22 SSW 1005,8 60 0 0,0
14.12.2017 17:00:00 9,9 2,0 9,1 5,1 7,9 29 16 54 29 S 1005,7 60 21 0,0
14.12.2017 16:00:00 9,9 3,0 9,2 5,0 7,9 29 16 48 26 SSW 1006,7 10 0 0,0
14.12.2017 15:00:00 9,4 5,2 9,2 5,0 7,9 22 12 40 22 SSW 1007,4 58 0 0,0
14.12.2017 14:00:00 9,9 5,1 10,1 4,9 7,9 26 14 45 25 S 1008,3 10 6 0,0
14.12.2017 13:00:00 10,1 5,1 9,8 4,8 7,9 24 13 42 23 SSW 1009,3 56 11 0,0
14.12.2017 12:00:00 9,2 5,4 9,6 4,8 7,9 22 12 36 19 SSW 1010,7 56 17 0,0
14.12.2017 11:00:00 8,4 4,6 7,7 4,8 7,9 5 3 18 10 - 1011,5 10 18 0,0
14.12.2017 10:00:00 7,4 4,5 6,0 4,8 7,9 6 3 13 7 NW 1012,0 40 31 0,0
14.12.2017 09:00:00 5,3 3,9 2,1 4,7 7,9 5 3 18 10 - 1012,3 10 3 0,0
14.12.2017 08:00:00 4,2 2,9 2,0 4,7 7,9 4 2 13 7 E 1013,1 10 0 0,0
14.12.2017 07:00:00 4,9 3,1 4,1 4,7 8,0 10 5 22 12 ENE 1012,2 22 0 0,0
14.12.2017 06:00:00 7,2 3,2 5,5 4,6 8,0 5 3 14 8 - 1012,0 10 0 0,0
14.12.2017 05:00:00 7,0 3,2 6,2 4,6 8,0 5 3 16 9 - 1012,4 10 0 0,0
14.12.2017 04:00:00 7,3 3,5 6,3 4,6 8,0 10 5 24 13 S 1011,8 55 0 0,0
14.12.2017 03:00:00 7,4 3,4 6,5 4,5 8,0 5 3 38 20 S 1012,1 10 0 0,0
14.12.2017 02:00:00 7,4 3,4 6,3 4,5 8,0 16 9 44 24 S 1012,2 60 0 0,0
14.12.2017 01:00:00 6,9 3,0 6,2 4,5 8,0 29 16 60 33 S 1012,3 60 0 0,0
14.12.2017 00:00:00 6,8 2,5 5,8 4,4 8,0 31 17 53 29 S 1012,3 10 0 0,0
13.12.2017 23:00:00 6,2 2,1 4,6 4,4 8,0 24 13 46 25 S 1012,7 60 0 0,0
13.12.2017 22:00:00 5,3 1,9 3,5 4,4 8,0 17 9 44 24 S 1013,2 60 0 0,0
13.12.2017 21:00:00 4,6 1,6 3,1 4,4 8,0 16 9 32 17 S 1013,7 10 0 0,6
13.12.2017 20:00:00 4,1 1,1 2,0 4,4 8,0 19 11 36 19 S 1014,3 10 0 0,8
13.12.2017 19:00:00 2,6 0,5 2,0 4,4 8,0 7 4 11 6 NE 1015,9 28 0 0,0
13.12.2017 18:00:00 2,5 0,1 1,9 4,4 8,0 8 4 17 9 ENE 1016,6 10 0 0,0
13.12.2017 17:00:00 2,8 0,5 1,9 4,4 8,0 4 2 16 9 - 1017,5 10 0 0,0
13.12.2017 16:00:00 3,4 -0,4 2,4 4,4 8,0 5 3 15 8 ENE 1018,0 10 0 0,2
13.12.2017 15:00:00 4,5 -1,3 4,0 4,4 8,0 8 4 11 6 WNW 1017,9 10 0 0,0
13.12.2017 14:00:00 5,1 -1,6 5,6 4,5 8,0 3 2 16 8 SW 1017,7 59 14 0,0
13.12.2017 13:00:00 4,0 -0,2 4,1 4,5 8,0 18 10 23 12 E 1018,2 14 44 0,0
13.12.2017 12:00:00 2,6 -0,7 3,1 4,6 8,0 12 6 19 11 E 1019,8 29 39 0,0
13.12.2017 11:00:00 1,6 -1,0 1,4 4,6 8,0 14 8 22 12 E 1020,7 33 46 0,0
13.12.2017 10:00:00 0,6 -0,7 -2,5 4,7 8,0 14 8 19 10 E 1021,6 13 60 0,0
13.12.2017 09:00:00 -2,6 -3,2 -6,7 4,8 8,0 0 0 0 0 N 1022,2 9 24 0,0
13.12.2017 08:00:00 -3,5 -4,0 -6,0 4,9 8,0 0 0 0 0 N 1022,4 9 0 0,0
13.12.2017 07:00:00 -4,5 -5,3 -7,3 4,9 8,0 0 0 0 0 N 1023,0 10 0 0,0
13.12.2017 06:00:00 -5,0 -5,8 -8,7 5,0 8,0 0 0 0 0 N 1023,5 9 0 0,0
13.12.2017 05:00:00 -2,3 -3,4 -5,8 5,1 8,0 0 0 0 0 N 1022,9 10 0 0,0
13.12.2017 04:00:00 -1,6 -2,4 -5,4 5,2 8,0 0 0 0 0 N 1022,6 10 0 0,0
13.12.2017 03:00:00 -4,4 -5,4 -6,8 5,2 8,0 0 0 0 0 N 1023,6 12 0 0,0
13.12.2017 02:00:00 -4,0 -4,7 -8,3 5,3 8,0 0 0 0 0 N 1023,7 6 0 0,0
13.12.2017 01:00:00 -4,7 -5,5 -9,2 5,4 8,0 0 0 10 6 N 1023,6 7 0 0,0
13.12.2017 00:00:00 -2,8 -3,5 -7,8 5,5 8,0 6 4 13 7 ESE 1023,0 7 0 0,0
12.12.2017 23:00:00 -1,6 -1,9 -5,6 5,5 8,0 11 6 15 8 E 1022,1 10 0 0,0
12.12.2017 22:00:00 -3,6 -4,6 -7,1 5,6 8,0 11 6 13 7 E 1022,5 7 0 0,0
12.12.2017 21:00:00 -2,5 -3,3 -6,3 5,6 8,0 4 2 9 5 ESE 1022,1 6 0 0,0
12.12.2017 20:00:00 -2,2 -2,8 -6,3 5,6 8,0 8 4 10 5 E 1021,3 4,8 0 0,0
12.12.2017 19:00:00 -0,7 -2,0 -5,6 5,7 8,0 2 1 6 3 NNE 1020,6 4,2 0 0,0
12.12.2017 18:00:00 0,6 -0,4 -3,9 5,6 8,0 0 0 10 6 N 1019,5 10 0 0,0
12.12.2017 17:00:00 1,9 -0,4 0,3 5,6 8,0 10 5 12 7 E 1018,4 17 19 0,0
12.12.2017 16:00:00 4,1 0,8 4,4 5,6 8,0 2 1 10 5 ENE 1017,6 41 0 0,0
12.12.2017 15:00:00 3,9 1,4 4,4 5,5 8,0 3 1 7 4 ENE 1016,7 52 0 0,0
12.12.2017 14:00:00 3,2 1,2 3,6 5,5 8,0 0 0 9 5 N 1016,1 42 1 0,0
12.12.2017 13:00:00 3,0 1,8 3,2 5,6 8,0 5 3 10 5 SE 1015,7 18 10 0,0
12.12.2017 12:00:00 1,9 1,0 1,1 5,6 8,0 7 4 11 6 SE 1015,6 16 0 0,2
12.12.2017 11:00:00 1,1 0,1 0,5 5,6 8,0 8 4 8 4 SSE 1015,5 6 0 1,0
12.12.2017 10:00:00 2,3 0,4 1,8 5,6 8,0 4 2 10 5 N 1014,0 15 0 0,4
12.12.2017 09:00:00 2,4 0,9 1,9 5,6 8,0 4 2 10 6 NNE 1012,8 18 0 0,2
12.12.2017 08:00:00 2,2 1,0 1,8 5,6 8,0 4 2 6 3 SSW 1011,6 10 0 0,0
12.12.2017 07:00:00 2,4 0,8 1,8 5,7 8,0 0 0 8 4 N 1010,1 47 0 0,0
12.12.2017 06:00:00 2,6 1,0 2,1 5,6 8,0 4 2 10 6 NE 1008,7 18 0 0,4
12.12.2017 05:00:00 2,9 1,4 2,4 5,7 8,0 0 0 8 4 N 1007,1 9 0 0,0
12.12.2017 04:00:00 3,0 0,7 2,2 5,7 8,0 5 3 31 17 S 1006,3 17 0 0,8
12.12.2017 03:00:00 3,7 1,6 3,0 5,7 8,0 17 9 29 16 N 1004,5 6 0 0,6
12.12.2017 02:00:00 5,8 3,8 5,3 5,7 8,0 16 9 24 13 WNW 1002,0 60 0 0,0
12.12.2017 01:00:00 6,9 2,2 6,1 5,7 8,0 13 7 31 17 SSW 1000,0 60 0 0,0
12.12.2017 00:00:00 6,9 2,4 6,1 5,7 8,0 16 9 34 19 S 999,1 60 0 0,0
11.12.2017 23:00:00 6,8 2,7 6,1 5,7 8,0 19 10 34 18 S 997,9 60 0 0,0
11.12.2017 22:00:00 6,8 2,7 5,5 5,7 8,1 17 9 26 14 S 996,5 60 0 0,0
11.12.2017 21:00:00 5,8 3,0 4,8 5,7 8,1 5 3 16 9 SSE 995,6 10 0 0,0
11.12.2017 20:00:00 6,1 3,1 5,0 5,6 8,1 4 2 50 27 - 994,1 10 0 0,0
11.12.2017 19:00:00 5,6 3,4 5,0 5,6 8,1 31 17 46 25 SSE 992,1 10 0 0,2
11.12.2017 18:00:00 6,0 4,0 5,1 5,5 8,1 14 8 31 17 S 991,6 12 0 1,6
11.12.2017 17:00:00 6,2 4,0 5,4 5,4 8,1 13 7 28 15 S 990,5 10 0 1,8
11.12.2017 16:00:00 6,9 5,0 6,2 5,3 8,1 11 6 23 12 S 988,9 9 0 1,8
11.12.2017 15:00:00 7,4 6,3 7,2 5,2 8,1 13 7 19 10 WSW 987,1 9 0 3,2
11.12.2017 14:00:00 7,9 7,0 7,7 5,0 8,1 15 8 37 20 W 986,0 2,6 0 5,7
11.12.2017 13:00:00 11,2 9,3 10,4 4,9 8,1 20 11 49 26 SSW 984,0 7 0 3,4
11.12.2017 12:00:00 11,4 9,5 10,6 4,9 8,1 25 13 53 29 SSW 983,9 4,2 0 2,6
11.12.2017 11:00:00 11,6 9,2 10,4 4,8 8,1 18 10 39 21 SSW 983,9 10 0 1,2
11.12.2017 10:00:00 12,1 8,2 10,4 4,7 8,1 28 15 72 39 SSW 983,1 10 0 0,6
11.12.2017 09:00:00 13,0 7,0 10,6 4,6 8,2 37 20 63 34 S 981,3 51 0 0,0
11.12.2017 08:00:00 12,4 6,9 10,1 4,5 8,2 36 19 59 32 S 981,8 53 0 0,2
11.12.2017 07:00:00 12,4 7,1 9,7 4,5 8,2 28 15 55 30 SSW 983,6 10 0 0,8
11.12.2017 06:00:00 12,2 6,9 9,9 4,4 8,2 32 17 66 36 S 984,2 38 0 0,2
11.12.2017 05:00:00 12,0 6,9 9,4 4,4 8,2 34 18 73 39 S 984,5 10 0 0,0
11.12.2017 04:00:00 11,7 7,0 4,8 4,4 8,2 24 13 48 26 SSW 986,4 10 0 0,0
11.12.2017 03:00:00 5,4 5,0 3,3 4,3 8,2 5 3 17 9 WNW 988,9 15 0 0,0
11.12.2017 02:00:00 4,6 4,2 3,2 4,3 8,2 7 4 22 12 NNW 989,6 0,5 0 0,0
11.12.2017 01:00:00 4,3 3,6 4,1 4,2 8,2 15 8 22 12 E 990,9 4,6 0 0,0
11.12.2017 00:00:00 5,6 4,9 3,3 4,2 8,2 9 5 18 10 WNW 993,7 6 0 0,0
10.12.2017 23:00:00 5,5 3,8 4,4 4,1 8,2 12 6 27 15 S 992,9 2,3 0 0,0
10.12.2017 22:00:00 6,3 4,8 5,5 4,0 8,2 11 6 19 11 NE 995,0 8 0 0,2
10.12.2017 21:00:00 6,6 4,8 5,7 4,0 8,3 13 7 27 15 NNE 996,1 9 0 0,0
10.12.2017 20:00:00 7,4 5,2 6,5 4,0 8,3 21 11 56 30 S 996,5 10 0 0,0
10.12.2017 19:00:00 6,7 4,9 6,2 3,9 8,3 28 15 52 28 S 997,1 10 0 0,0
10.12.2017 18:00:00 6,8 4,8 5,8 3,9 8,3 29 16 53 28 S 997,6 46 0 0,0
10.12.2017 17:00:00 6,2 4,4 2,6 3,9 8,3 21 11 37 20 S 998,4 41 0 0,0
10.12.2017 16:00:00 3,9 1,9 3,4 3,9 8,3 8 4 18 10 ESE 999,6 37 0 0,0
10.12.2017 15:00:00 3,8 2,0 3,3 3,9 8,3 13 7 30 16 WNW 1000,1 35 0 0,0
10.12.2017 14:00:00 3,2 1,7 2,5 3,9 8,3 15 8 29 16 W 1001,2 60 0 0,0
10.12.2017 13:00:00 2,7 1,2 1,9 4,0 8,4 18 10 31 17 W 1002,1 10 0 0,0
10.12.2017 12:00:00 1,9 0,4 1,3 4,0 8,3 11 6 30 16 WSW 1004,4 29 0 1,0
10.12.2017 11:00:00 1,5 0,0 1,1 4,0 8,3 16 8 31 17 SW 1005,6 11 0 3,0
10.12.2017 10:00:00 2,0 0,1 1,2 4,1 8,3 12 6 29 15 SSW 1006,2 5 0 3,8
10.12.2017 09:00:00 1,9 -0,2 0,0 4,1 8,4 8 4 33 18 - 1007,6 10 0 2,2
10.12.2017 08:00:00 1,3 -2,5 -0,1 4,2 8,4 8 4 22 12 SW 1008,5 10 0 0,4
10.12.2017 07:00:00 0,3 -4,2 -0,4 4,2 8,4 13 7 22 12 WSW 1009,5 57 0 0,2
10.12.2017 06:00:00 0,2 -5,4 -0,9 4,3 8,4 9 5 27 14 WSW 1010,6 60 0 0,0

tt = temperature
td = dewpoint
tt 5cm = temperature 5cm
tt -20cm = temperature -20cm
tt -100cm = temperature -100cm
ff = wind speed
fx = gusts
dd = wind direction
ppp = reduced air pressure
vv = visibility
sd = sunshine duration
rr = precipitation

Next stations